Weather History for Havre, MT

Change the Weather History Date:

Friday, January 18, 2013

  Actual Average Record
Temperature  
Mean Temperature 35 °F 18 °F  
Max Temperature 41 °F 29 °F 61 °F (1900)
Min Temperature 28 °F 7 °F -36 °F (1883)
Degree Days  
Heating Degree Days 30 47  
Month to date heating degree days 774 857  
Since 1 July heating degree days 4144 4323  
Cooling Degree Days 0 0  
Month to date cooling degree days 0 0  
Year to date cooling degree days 0 0  
Moisture  
Dew Point 25 °F    
Average Humidity 65    
Maximum Humidity 75    
Minimum Humidity 54    
Precipitation  
Precipitation 0.00 in 0.01 in 0.32 in (1918)
Month to date precipitation 0.87 0.22  
Year to date precipitation 0.87 0.22  
Snow  
Snow 0.00 in 0.20 in 3.30 in (1918)
Month to date snowfall 15.0 4.7  
Since 1 July snowfall 40.0 19.7  
Snow Depth 3.00 in    
Sea Level Pressure  
Sea Level Pressure 29.90 in    
Wind  
Wind Speed 16 mph (SW)    
Max Wind Speed 25 mph    
Max Gust Speed 37 mph    
Visibility 10 miles    
Events      
T = Trace of Precipitation, MM = Missing Value Source: NWS Daily Summary

Daily Weather History Graph

Daily Weather History Graph

Search for Another Location

Airport:

Trip Planner

Search our weather history database for the weather conditions in past years. The results will help you decide how hot, cold, wet, or windy it might be!

Date:

Astronomy

Jan. 18, 2013 Rise Set
Actual Time 8:03 AM MST 4:56 PM MST
Civil Twilight 7:28 AM MST 5:31 PM MST
Nautical Twilight 6:49 AM MST 6:10 PM MST
Astronomical Twilight 6:12 AM MST 6:47 PM MST
Moon 11:02 AM MST (1/18) 12:28 AM MST (1/18)
Length of Visible Light 10h 03m
Length of Day
8h 52m
Waxing Crescent, 48% of the Moon is Illuminated
Jan 18
Waxing Crescent
Jan 18
First Quarter
Jan 26
Full
Feb 3
Last Quarter
Feb 10
New

Hourly Weather History & Observations

Time (MST) Temp. Windchill Dew Point Humidity Pressure Visibility Wind Dir Wind Speed Gust Speed Precip Events Conditions
12:53 AM 37.9 °F 27.6 °F 27.0 °F 65% 29.91 in 10.0 mi WSW 20.7 mph - N/A   Clear
1:53 AM 35.1 °F 24.8 °F 27.0 °F 72% 29.93 in 10.0 mi SSW 17.3 mph - N/A   Clear
2:53 AM 37.0 °F 26.4 °F 26.1 °F 65% 29.93 in 10.0 mi WSW 20.7 mph 25.3 mph N/A   Clear
3:53 AM 36.0 °F 26.3 °F 25.0 °F 64% 29.91 in 10.0 mi SW 16.1 mph - N/A   Clear
4:53 AM 37.0 °F 26.4 °F 25.0 °F 62% 29.90 in 10.0 mi SW 20.7 mph - N/A   Clear
5:53 AM 39.0 °F 29.0 °F 24.1 °F 55% 29.88 in 10.0 mi SW 20.7 mph - N/A   Clear
6:53 AM 39.9 °F 29.7 °F 24.1 °F 53% 29.87 in 10.0 mi SW 23.0 mph 36.8 mph N/A   Clear
7:53 AM 37.9 °F 27.9 °F 24.1 °F 57% 29.87 in 10.0 mi SW 19.6 mph - N/A   Clear
8:53 AM 37.9 °F 27.6 °F 24.1 °F 57% 29.88 in 10.0 mi SW 20.7 mph 28.8 mph N/A   Clear
9:53 AM 37.9 °F 28.2 °F 25.0 °F 60% 29.87 in 10.0 mi SW 18.4 mph - N/A   Clear
10:53 AM 39.0 °F 29.3 °F 26.1 °F 60% 29.87 in 10.0 mi SW 19.6 mph - N/A   Clear
11:53 AM 39.9 °F 30.0 °F 26.1 °F 58% 29.85 in 10.0 mi WSW 21.9 mph - N/A   Clear
12:53 PM 41.0 °F 31.4 °F 27.0 °F 57% 29.84 in 10.0 mi WSW 21.9 mph - N/A   Clear
1:53 PM 39.9 °F 32.1 °F 27.0 °F 60% 29.86 in 10.0 mi WSW 13.8 mph - N/A   Clear
2:53 PM 39.0 °F 31.4 °F 28.0 °F 65% 29.86 in 10.0 mi WSW 12.7 mph - N/A   Scattered Clouds
3:53 PM 39.9 °F 32.5 °F 28.0 °F 63% 29.87 in 10.0 mi SW 12.7 mph - N/A   Overcast
4:53 PM 37.9 °F 31.5 °F 27.0 °F 65% 29.88 in 10.0 mi SW 9.2 mph - N/A   Scattered Clouds
5:53 PM 37.0 °F 30.4 °F 26.1 °F 65% 29.90 in 10.0 mi West 9.2 mph - N/A   Mostly Cloudy
6:53 PM 34.0 °F 27.2 °F 26.1 °F 73% 29.94 in 10.0 mi WSW 8.1 mph - N/A   Overcast
7:53 PM 33.1 °F 24.4 °F 25.0 °F 72% 29.95 in 10.0 mi SSW 11.5 mph - N/A   Partly Cloudy
8:53 PM 34.0 °F 25.0 °F 25.0 °F 70% 29.95 in 10.0 mi SSW 12.7 mph - N/A   Clear
9:53 PM 35.1 °F 25.5 °F 24.1 °F 64% 29.97 in 10.0 mi SW 15.0 mph - N/A   Clear
10:53 PM 30.0 °F 20.0 °F 21.9 °F 72% 29.99 in 10.0 mi SW 12.7 mph - N/A   Clear
11:53 PM 30.9 °F 21.2 °F 21.9 °F 69% 30.01 in 10.0 mi SW 12.7 mph - N/A   Clear